Location: Calvatone
(45.1167°N, 10.4333°E)
Time: 09:47:19
(UTC+00:00)

METEOR M2 - Pass Details

Date: 04 December 2023
Orbit: 818 x 826 km, 98.4° (Epoch: 24 February)

Event Time Altitude Azimuth Distance (km) Brightness Sun altitude
Rises 03:38:30 0° 33° (NNE) 3,369 ? -31.1°
Reaches altitude 10° 03:42:32 10° 64° (ENE) 2,427 ? -30.4°
Maximum altitude 03:44:38 12° 87° (E) 2,269 ? -30.0°
Drops below altitude 10° 03:46:42 10° 110° (ESE) 2,418 ? -29.7°
Sets 03:50:41 0° 140° (SE) 3,341 ? -29.0°
